Regional Weather Roundup
Issued by NWS

Home | Current Version | Previous Version | Text Only | Print | Product List | Glossary Off
Versions: 1 2 3 4 5 6 7 8 9 10 11 12 13 14 15 16 17 18 19 20 21 22 23 24 25 26 27 28 29 30 31 32 33 34 35 36 37 38 39 40 41 42 43 44 45 46 47 48 49 50

000
ASUS45 KSLC 170810
RWRUT

UTAH REGIONAL WEATHER ROUNDUP
NATIONAL WEATHER SERVICE SALT LAKE CITY UT
200 AM MDT FRI APR 17 2015

UTZ001>011-023>025-170900-

NORTHERN UTAH

CITY           SKY/WX    TMP DP  RH WIND       PRES   REMARKS
BRIGHAM CITY   MOCLDY    48  28  45 E7G23     30.17S
HILL AFB       CLEAR     43  29  56 E18G33    30.14R
LOGAN          CLEAR     42  33  70 VRB5      30.17S
OGDEN          PTCLDY    47  27  45 VRB3      30.14R
PROVO AIRPORT  CLEAR     37  30  75 SE8       30.13S WCI  31
SALT LAKE CITY PTCLDY    43  30  60 CALM      30.13S
VERNAL         CLOUDY    42  27  55 NE18      30.12S
WENDOVER       CLEAR     45  21  39 CALM      30.16S
HEBER CITY     CLEAR     36  27  69 NE9       30.15S WCI  29
WEST JORDAN    CLOUDY    45  30  57 N14G28    30.14S

$$

UTZ012>022-026-027-170900-

SOUTHERN/CENTRAL UTAH

CITY           SKY/WX    TMP DP  RH WIND       PRES   REMARKS
BRYCE CANYON   CLOUDY    25  23  92 W9        30.13F WCI  15
CEDAR CITY     CLEAR     33  28  81 NE3       30.13S
HANKSVILLE     CLOUDY    37  36  93 CALM      30.09F
MILFORD        CLEAR     34  30  85 NW3       30.13F
MOAB/CYNLANDS  RAIN      35  35 100 SE12      30.05F FOG     WCI  27
PRICE          NOT AVBL
ST GEORGE      SUNNY     48  30  49 SE8       30.12F
KANAB          CLEAR     30  30 100 CALM      30.19S

$$

REGIONAL REPORTS     COLORADO/ARIZONA

CITY           SKY/WX    TMP DP  RH WIND       PRES   REMARKS
CRAIG, CO      CLOUDY    33  31  92 SW3       30.05F
GRAND JUNCTION LGT RAIN  36  36 100 NW7       30.04F WCI  30
RIFLE          LGT RAIN  38  35  89 N5        30.03F WCI  34
MONTROSE       LGT SNOW  33  32  96 SE13      30.05F VSB 1   WCI  24
CORTEZ         MOCLDY    33  15  47 E3        30.07S
PAGE, AZ       PTCLDY    41  33  73 SW5       30.12S
GRAND CANYON   PTCLDY    24  23  96 CALM      30.14R
KINGMAN        MOCLDY    46  19  34 SE7       30.10R
FLAGSTAFF      LGT SNOW  30  28  92 CALM      30.09S FOG

$$

REGIONAL REPORTS    NEVADA/IDAHO/WYOMING

CITY           SKY/WX    TMP DP  RH WIND       PRES   REMARKS
LAS VEGAS, NV  CLEAR     61  18  18 N5        30.05R
ELY            CLEAR     24  12  60 CALM      30.19R
ELKO           CLEAR     33  22  63 W3        30.20S
POCATELLO, ID  CLEAR     39  29  67 SW7       30.19R WCI  34
BURLEY         CLEAR     36  24  62 CALM      30.18S
EVANSTON, WY   CLOUDY    31  27  85 NE6       30.20F WCI  25
ROCK SPRINGS   CLOUDY    33  27  78 NE17      30.19F WCI  22

$$



USA.gov is the U.S. government's official web portal to all federal, state and local government web resources and services.